Hourly Weather Roundup
Issued by NWS Central Illinois

Home | Current Version | Previous Version | Text Only | Print | Product List | Glossary On
Versions: 1 2 3 4 5 6 7 8 9 10 11 12 13 14 15 16 17 18 19 20 21 22 23 24 25 26 27 28 29 30 31 32 33 34 35 36 37 38 39 40 41 42 43 44 45 46 47 48 49 50
207
NZUS43 KILX 060910
HWRILX

AREA WEATHER ROUNDUP
NATIONAL WEATHER SERVICE, LINCOLN IL
300 AM CST SAT FEB 06 2016


CITY           SKY/WX    TMP DP  RH WIND       PRES   REMARKS
BLOOMINGTON    PTCLDY    21  21 100 S7        30.30F WCI  12
CHAMPAIGN      PTCLDY    22  20  92 S5        30.31F WCI  16
DANVILLE       MOCLDY    22  21  94 CALM      30.29F
DECATUR        CLOUDY    27  23  85 S7        30.32S WCI  19
EFFINGHAM      PTCLDY    26  26 100 CALM      30.35F FOG
FLORA          CLEAR     26  23  87 CALM      30.35S
GALESBURG      CLOUDY    27  24  87 S3        30.28F
JACKSONVILLE   CLOUDY    32  27  80 S5        30.31R WCI  28
LACON          CLOUDY    26  22  83 CALM      30.30S
LAWRENCEVILLE  CLEAR     23  21  92 NE3       30.36R FOG
LITCHFIELD     CLOUDY    29  24  79 SE7       30.31S WCI  22
$$


CITY           SKY/WX    TMP DP  RH WIND       PRES   REMARKS
LINCOLN        MOCLDY    26  25  94 S3        30.31F FOG
MACOMB         CLOUDY    30  25  82 S5        30.32S WCI  25
MATTOON        CLOUDY    25  22  88 S6        30.32S WCI  18
MT CARMEL AP   PTCLDY    25  21  86 CALM      30.35S
OLNEY-NOBLE AP CLOUDY    27  23  86 CALM      30.35F
PARIS          CLOUDY    23  21  93 CALM      30.34S
PEORIA         CLOUDY    27  22  81 S3        30.31S
PONTIAC        MOCLDY    25  23  94 S5        30.31F WCI  19
RANTOUL        MOCLDY    25  24  95 CALM      30.31F FOG
ROBINSON       CLOUDY    19  18  94 S3        30.37R FOG
SPRINGFIELD    CLOUDY    30  26  85 S5        30.31F WCI  25
TAYLORVILLE    CLOUDY    28  27  93 SE6       30.32F WCI  22
$$

...REGIONAL REPORTS...


CITY           SKY/WX    TMP DP  RH WIND       PRES   REMARKS
CHICAGO O`HARE MOCLDY    26  21  81 SW6       30.27F WCI  19
KANKAKEE       CLOUDY    24  21  89 S5        30.31F WCI  18
MOLINE         PTCLDY    28  21  75 S3        30.27F
MOUNT STERLING CLOUDY    29  24  79 S5        30.29S WCI  24
MOUNT VERNON   CLOUDY    28  19  69 CALM      30.33F
PITTSFIELD     CLOUDY    30  25  81 CALM      30.30F
QUINCY         MOCLDY    30  19  63 S3        30.29S
ROCKFORD       CLOUDY    28  22  78 SW7       30.28F WCI  21
$$


CITY           SKY/WX    TMP DP  RH WIND       PRES   REMARKS
BURLINGTON     CLOUDY    29  24  82 S3        30.28F
CEDAR RAPIDS   CLOUDY    28  24  85 SW7       30.23F WCI  21
DES MOINES     CLOUDY    30  25  81 SW6       30.24S WCI  24
KIRKSVILLE     CLOUDY    27  19  72 S6        30.26F WCI  20
OTTUMWA        CLEAR     25  21  85 SE3       30.25F
ST LOUIS       CLOUDY    32  22  66 E3        30.31F
$$


CITY           SKY/WX    TMP DP  RH WIND       PRES   REMARKS
TERRE HAUTE    CLOUDY    23  19  85 CALM      30.34S
EVANSVILLE     CLEAR     29  22  75 CALM      30.35F
INDIANAPOLIS   CLOUDY    22  19  89 CALM      30.32R
LAFAYETTE      CLEAR     19  17  92 CALM      30.33S FOG
MADISON        CLOUDY    27  19  72 VRB5      30.22F WCI  22
MILWAUKEE      CLOUDY    29  20  69 SW7       30.24F WCI  22
$$






USA.gov is the U.S. government's official web portal to all federal, state and local government web resources and services.